This is the latest recevied weather packets stored in our database for station/object K6JWN. If no packets are shown the sender has not sent any weather packets the latest 10 day(s).
| Time | Temp. | Humidity | Pressure | Rain* | Wind** | Luminosity | Snow |
|---|---|---|---|---|---|---|---|
| 1778121558 | 22.78° C | 48% | 1016.1 hPa | 0 mm | - | - | - |
| 1778120957 | 23.33° C | 46% | 1016.1 hPa | 0 mm | - | - | - |
| 1778120358 | 23.33° C | 45% | 1015.9 hPa | 0 mm | - | - | - |
| 1778119757 | 23.89° C | 45% | 1015.8 hPa | 0 mm | - | - | - |
| 1778119157 | 24.44° C | 44% | 1016 hPa | 0 mm | - | - | - |
| 1778118557 | 24.44° C | 43% | 1015.9 hPa | 0 mm | - | - | - |
| 1778117957 | 25° C | 42% | 1015.9 hPa | 0 mm | - | - | - |
| 1778117357 | 24.44° C | 43% | 1016 hPa | 0 mm | - | - | - |
| 1778116757 | 24.44° C | 42% | 1016 hPa | 0 mm | - | - | - |
| 1778116158 | 24.44° C | 43% | 1016.1 hPa | 0 mm | - | - | - |
| 1778115557 | 24.44° C | 43% | 1016.1 hPa | 0 mm | - | - | - |
| 1778114957 | 24.44° C | 42% | 1016.2 hPa | 0 mm | - | - | - |
| 1778114357 | 24.44° C | 42% | 1016 hPa | 0 mm | - | - | - |
| 1778113757 | 25° C | 43% | 1016 hPa | 0 mm | - | - | - |
| 1778113157 | 25° C | 41% | 1016 hPa | 0 mm | - | - | - |
| 1778112557 | 24.44° C | 42% | 1016.1 hPa | 0 mm | - | - | - |
| 1778111957 | 25.56° C | 43% | 1016.1 hPa | 0 mm | - | - | - |
| 1778111357 | 25° C | 44% | 1016.2 hPa | 0 mm | - | - | - |
| 1778110757 | 23.89° C | 44% | 1016.3 hPa | 0 mm | - | - | - |
| 1778110157 | 23.89° C | 44% | 1016.3 hPa | 0 mm | - | - | - |
| 1778109557 | 24.44° C | 44% | 1016.4 hPa | 0 mm | - | - | - |
| 1778108957 | 24.44° C | 45% | 1016.4 hPa | 0 mm | - | - | - |
| 1778108357 | 23.33° C | 44% | 1016.9 hPa | 0 mm | - | - | - |
| 1778107757 | 23.33° C | 45% | 1016.9 hPa | 0 mm | - | - | - |
| 1778107157 | 23.33° C | 45% | 1017.1 hPa | 0 mm | - | - | - |
* Rain latest hour (hover to see other rain measurements)
** Current wind speed in m/s (hover to see current wind gust speed)